CAPE
0 0 0 0 0 0 0 0 1 1 0 0 0 0 0 0 0 0 0 0 0 0 0 0 0 0 0 0 0 1 12 245 258 183 131 30 121 3 99 179 311 206 247 49 24 24 51 697 1041 1544 1369 942 924 996
0 0 0 0 0 0 0 0 1 1 0 0 0 0 0 0 0 0 0 0 0 0 0 0 0 0 0 0 0 0 38 9 319 5 8 9 21 193 10 0 434 214 280 865 1019 806 741 671 627 575 866 990 759 638
0 0 0 0 0 0 0 1 1 0 0 0 0 0 0 0 0 0 0 0 0 0 0 0 0 0 0 0 0 0 2 1 18 268 27 43 2 20 21 87 61 238 939 396 961 530 468 366 331 356 414 407 317 357
0 0 0 0 0 0 0 1 1 1 1 0 0 0 0 0 0 0 0 0 0 0 0 0 0 0 0 0 0 0 0 0 0 4 16 21 0 181 112 103 0 2 335 768 816 255 99 198 196 241 276 346 335 311
0 0 0 0 0 0 1 1 1 1 1 0 0 0 0 0 0 0 0 0 0 0 0 0 0 0 0 0 0 0 0 0 0 0 0 0 20 63 118 121 118 87 402 447 317 205 492 360 185 94 50 19 21 75
0 0 0 0 0 0 0 1 1 1 1 1 1 0 0 0 0 0 0 0 0 0 0 0 0 0 0 0 0 0 0 0 0 0 0 0 65 26 131 234 422 202 324 355 215 245 287 78 0 0 0 0 9 70
0 0 0 0 0 0 0 1 1 1 1 1 1 0 0 0 0 0 0 0 0 0 0 0 0 0 0 0 0 0 0 0 0 0 0 0 0 0 0 15 84 489 277 219 103 12 3 6 0 1 13 2 69 111
0 0 0 0 0 0 1 0 1 1 1 0 0 0 0 0 0 0 0 0 0 0 0 0 0 0 0 0 0 0 0 0 0 0 0 0 0 0 25 368 365 361 88 12 2 0 13 15 7 55 14 10 53 74
0 0 0 0 0 0 0 1 0 0 0 0 0 0 0 0 0 0 0 0 0 0 0 0 0 12 0 0 3 0 0 0 0 0 0 0 0 0 25 216 248 208 24 46 0 0 1 10 19 32 32 71 45 67
0 0 0 0 0 0 0 0 0 0 0 0 0 0 0 0 0 0 0 0 0 0 0 0 0 6 0 0 0 0 0 0 0 0 0 0 0 219 48 202 362 210 75 9 0 2 36 36 65 111 82 83 118 94
0 0 0 0 0 0 1 1 1 0 0 0 0 0 0 0 0 0 0 0 0 0 0 0 0 1 10 28 8 4 4 3 8 42 0 5 0 122 124 205 317 301 116 0 45 115 34 50 53 146 186 59 111 75
0 0 0 0 0 0 4 1 0 0 0 0 0 0 0 3 4 3 0 0 0 0 0 0 0 9 87 54 56 4 26 13 29 63 0 2 405 363 126 205 325 279 178 164 160 131 73 65 113 166 245 193 156 183
0 0 0 0 0 0 0 0 0 0 0 0 5 2 7 11 2 3 0 0 0 0 0 0 0 12 127 66 80 37 17 32 44 5 0 280 733 359 261 304 360 353 273 247 256 142 75 148 144 220 332 300 287 169
0 0 0 0 0 1 0 0 0 0 3 13 11 0 7 7 3 0 0 1 15 0 0 0 2 55 109 21 82 49 46 67 33 13 40 251 509 344 448 399 304 216 232 188 193 175 225 278 399 431 464 431 407 336
0 0 0 0 0 1 1 0 0 0 0 12 22 1 7 0 11 38 12 8 18 2 0 0 17 111 117 91 48 42 42 19 10 12 66 583 426 481 530 388 332 292 261 185 155 198 195 259 428 429 406 442 241 78
0 0 0 0 0 0 1 1 4 16 8 20 18 1 0 21 1 45 58 43 13 6 1 9 82 97 57 48 34 36 17 9 10 35 106 652 716 700 652 464 355 293 206 142 64 148 159 282 392 469 309 95 15 9
4 8 0 0 0 3 1 4 1 5 9 15 0 0 6 8 51 57 44 1 3 19 8 11 38 40 15 13 12 22 23 23 64 31 108 579 820 629 530 414 377 296 226 91 16 3 53 169 325 380 283 74 5 10
9 12 0 0 22 5 2 0 2 1 7 1 24 39 38 45 75 43 17 0 23 36 30 33 12 45 41 17 10 14 87 130 58 76 300 729 603 567 456 396 347 245 173 165 153 44 124 100 145 232 225 11 1 9
8 16 0 33 24 0 1 1 1 4 2 15 28 51 107 89 46 21 32 4 48 75 41 60 26 3 9 42 66 98 92 60 115 174 497 603 565 502 452 437 411 352 270 264 121 179 277 264 184 198 113 33 17 10
11 4 0 46 23 13 34 14 6 1 1 21 63 53 26 20 49 60 104 96 45 98 76 22 47 89 81 101 112 100 86 100 90 132 186 308 397 483 529 509 355 304 268 63 43 113 149 253 370 302 39 14 46 9
14 19 29 40 22 4 8 2 3 1 0 21 14 8 8 17 75 131 124 90 113 71 73 112 146 264 247 250 208 193 256 155 107 206 202 126 198 232 257 380 256 110 18 14 161 317 25 304 132 153 61 15 24 21
5 25 24 14 1 2 0 0 2 30 16 9 9 17 37 52 70 127 82 3 2 65 136 161 205 327 380 342 329 441 361 197 100 0 0 0 2 41 21 36 59 57 25 22 262 376 355 224 317 232 41 28 34 25
9 11 2 1 0 0 1 21 13 14 9 3 17 19 17 42 103 12 26 81 85 88 173 323 440 525 388 303 183 170 209 193 91 102 62 10 4 17 15 21 22 25 55 116 292 425 493 268 107 36 12 29 28 34
0 0 0 2 1 3 7 3 0 1 4 2 1 10 35 37 49 41 15 52 58 86 99 225 61 60 67 176 160 113 122 68 28 58 77 65 24 23 101 92 68 51 111 242 400 502 439 140 9 22 7 29 29 38
1 1 4 6 6 3 0 3 35 43 19 13 1 0 30 35 9 15 21 35 39 39 39 110 54 49 37 29 30 36 351 63 60 64 75 45 19 59 73 32 39 20 28 135 345 446 272 50 10 19 27 54 62 3
1 20 4 7 18 30 43 33 22 13 7 0 4 4 22 19 6 7 52 77 73 80 196 67 151 54 32 38 35 71 131 154 204 199 111 39 29 49 9 23 5 15 34 52 61 56 55 44 32 49 66 13 11 14
7 22 30 16 57 25 22 13 4 0 0 0 9 22 13 16 22 54 93 170 175 184 106 63 56 54 58 75 108 119 111 200 298 95 22 23 23 21 20 23 25 14 30 34 46 35 49 15 11 24 65 71 41 47
21 62 18 34 35 30 18 18 17 10 16 13 18 14 13 12 59 85 117 76 70 78 78 100 113 106 97 113 88 73 90 49 166 65 64 42 46 39 53 50 49 29 27 29 17 74 58 56 47 44 56 52 58 68
26 43 39 33 32 32 27 14 11 32 23 17 30 10 9 18 38 52 33 36 31 42 29 9 26 58 41 59 149 106 72 34 16 21 12 29 31 6 38 9 50 54 62 17 21 20 8 12 42 73 80 59 43 43
28 31 28 20 11 5 20 25 26 19 19 15 17 26 36 31 30 44 106 108 64 8 3 11 47 46 43 71 40 90 24 46 59 44 131 41 8 12 18 9 10 17 56 49 43 96 0 0 10 15 7 10 12 27
22 25 13 6 10 24 41 45 31 33 36 45 44 72 60 9 54 82 88 98 90 191 223 140 69 57 64 44 46 45 25 8 20 5 1 29 38 16 36 37 37 36 10 14 7 5 11 20 34 36 63 73 70 61
26 13 1 14 29 8 39 9 10 20 38 32 16 37 0 7 15 78 130 66 46 85 22 58 40 74 56 57 31 62 16 46 13 69 48 9 9 10 2 1 109 71 11 0 10 14 1 6 30 22 14 33 32 37
11 14 33 14 27 17 29 15 21 41 39 40 25 38 25 22 25 78 54 48 64 68 49 49 37 54 71 59 69 55 51 59 47 34 30 27 10 14 43 56 74 102 88 67 65 22 2 5 17 69 53 37 26 27
CIN
0 0 0 0 -2 0 0 0 0 0 0 0 0 0 0 0 0 0 0 0 0 0 0 0 0 0 0 0 0 -16 -3 -6 -9 -7 -10 -105 -9 -15 -10 -6 -13 -5 -5 -15 -38 -21 -8 -136 -73 -26 -86 -156 -163 -166
0 0 0 0 0 0 0 0 0 0 0 0 0 0 0 0 0 0 0 0 0 0 0 0 0 0 0 0 0 0 -8 -34 -5 -135 -38 -20 -46 -3 -24 0 -16 -27 -8 -24 -34 -23 -131 -159 -213 -252 -157 -131 -170 -198
0 0 0 0 0 0 0 0 0 0 0 0 0 0 0 0 0 0 0 0 0 0 0 0 0 0 0 0 0 0 -9 -16 -4 -31 -2 -16 -105 -31 -6 -49 -6 -14 -12 -9 -23 -56 -98 -132 -160 -207 -208 -188 -229 -207
0 0 0 0 0 0 0 0 0 0 0 0 0 0 0 0 0 0 0 0 0 0 0 0 0 0 0 0 0 0 0 0 -31 -40 -17 -8 -3 -37 -6 -61 0 -13 -59 -2 -2 -60 -127 -92 -114 -112 -109 -91 -94 -106
0 0 0 0 0 0 0 0 0 0 0 0 0 0 0 0 0 0 0 0 0 0 0 0 0 0 0 0 0 0 0 0 0 0 0 0 -10 -14 -6 -11 -41 -47 -9 -2 -3 -19 -7 -37 -58 -59 -90 -157 -186 -110
0 0 0 0 0 0 0 0 0 0 0 0 0 0 0 0 0 0 0 0 0 0 0 0 0 0 0 0 0 0 0 0 0 0 0 -1 -52 -54 -11 -7 -8 -6 -18 -3 -19 -43 -28 -79 0 0 0 0 -91 -66
0 0 0 0 0 0 0 -2 0 0 0 0 0 0 0 0 0 0 0 0 0 0 0 0 0 0 0 0 0 0 0 0 0 0 0 0 0 0 0 -23 -5 -1 -18 -30 -47 -59 -76 -72 0 -34 -94 -16 -12 -19
0 0 0 0 0 0 -1 0 0 0 0 0 0 0 0 0 0 0 0 0 0 0 0 0 0 0 0 0 0 0 0 0 0 0 0 0 0 0 -3 -9 -20 -25 -43 -74 -42 0 -33 -40 -79 -48 -2 -30 -15 -10
0 0 0 0 0 0 0 -3 0 0 0 0 0 0 0 0 0 0 0 0 0 0 0 0 -9 -6 0 0 -2 0 0 0 0 0 0 0 0 0 -6 -5 -6 -19 -39 -37 0 0 -1 -4 -2 -22 -90 -35 -3 -16
0 0 0 0 0 0 0 -3 0 0 0 0 0 0 0 0 0 0 0 0 0 0 0 0 0 -85 -1 -1 -1 0 0 -1 0 0 0 0 0 -27 -23 -16 -14 -26 -23 -36 0 -1 -47 -4 -47 -6 -6 -12 -2 -8
0 0 0 0 0 0 0 0 0 0 0 0 0 0 0 0 0 0 -1 0 0 0 0 0 0 -103 -5 -3 -4 -1 -2 -4 -3 -5 0 -1 -2 -24 -59 -44 -13 -10 -8 0 -12 -2 -3 -2 -2 -10 -9 -9 -3 -7
0 0 0 0 0 0 -4 0 0 0 0 0 0 0 0 -1 -1 -1 -4 0 0 0 0 0 0 -78 -6 -9 -4 -9 -6 -3 -3 -4 0 -3 -17 -39 -42 -25 -7 -2 -2 -2 -1 -3 -4 -1 -4 -1 -2 -9 -1 -1
0 0 0 0 0 0 0 0 0 0 0 0 -15 -14 -4 -1 0 -1 -1 0 0 0 0 0 0 -22 -6 -6 -3 -3 -2 -4 -2 -2 0 -3 -8 -31 -20 -5 -2 -1 -1 -1 -1 -5 -11 -6 -2 -1 -1 -10 -2 -1
0 0 0 0 0 0 0 0 0 0 -18 -8 -3 -1 -1 -1 -3 -1 0 -2 -5 -1 0 0 -48 -8 -2 -3 -5 -2 -4 -4 -3 -3 -4 -6 -31 -24 -13 -2 -1 -2 -1 -2 -4 -4 -2 -3 -2 -3 -1 -2 -1 -2
0 0 0 0 0 0 0 0 0 0 0 -3 -1 -3 -2 0 -4 -2 -4 -4 -4 -5 0 0 -11 -1 -5 -4 -4 -6 -4 -3 -3 -3 -3 -8 -29 -11 -1 -1 -2 -1 -1 -1 -3 -3 -1 -1 -1 -3 -3 -1 -5 -8
0 0 0 0 0 0 0 0 -2 -13 -19 -3 -1 -1 -1 -3 -4 -3 -3 -4 -6 -23 -7 -22 -3 -2 -4 -5 -3 -3 -3 -4 -4 -4 -4 -19 -10 -1 -1 -1 -1 -1 -1 -2 -5 -2 -1 -1 -2 0 -7 -10 -4 -2
0 -2 0 0 0 0 0 -1 -2 -6 -10 -1 0 0 -6 -116 -12 -6 -3 -3 -23 -23 -12 -28 -6 -3 -7 -4 -7 -6 -4 -7 -7 -2 -5 -3 -1 -7 -4 -1 -1 -1 -1 -1 -12 -1 -9 -1 -1 0 -1 -6 -1 -1
-1 -3 0 0 -1 -10 0 0 -3 -4 -1 -1 -23 -3 -6 -5 -3 -4 -5 0 -23 -8 -3 -4 -14 -9 -3 -3 -5 -10 -2 -3 -3 -5 -2 -2 -11 -7 -5 0 0 -1 -1 -1 0 -5 -3 -1 -1 -1 -1 -7 -9 -1
-4 -2 0 -1 -1 -6 0 0 0 0 -1 -13 -11 -5 -5 -4 -3 -1 -3 -2 -3 -3 -6 -22 -11 -8 -7 -5 -6 -4 -3 -3 -5 -2 -2 -3 -9 -4 -1 -1 -1 -1 -1 -1 -3 -1 -5 -2 -1 -4 -3 -5 -1 -1
-2 -3 0 -4 -4 -6 -6 -2 -1 -1 0 -2 -5 -2 -3 -8 -5 -2 -2 -2 -6 -2 -7 -13 -7 -1 -1 -5 -4 -4 -3 -2 -2 -2 -2 -2 -1 -1 -1 -1 -2 -1 -2 -15 -23 -23 -3 -1 -1 -1 -2 -3 -1 -2
-2 -1 -2 -2 -5 -1 -6 0 0 0 0 0 -1 -3 0 -22 -13 -9 -2 -4 -1 -6 -4 -14 -2 -15 -12 -3 -1 -1 -2 -4 -1 -3 -4 -3 -1 -1 -1 -1 -1 -10 -24 -3 -1 -2 -2 -1 -4 -6 -3 -4 -2 -4
0 -1 -1 -2 -1 0 0 -1 0 -1 0 -1 -1 -2 -4 -4 -16 -12 -15 -8 -6 -7 -4 -7 -2 -2 -10 -2 -2 -2 -10 -21 -30 0 0 0 -32 -12 -19 -29 -27 -21 -2 -2 -3 0 -1 -6 -2 -3 -16 -6 -4 -4
-4 -6 -5 -2 0 0 -2 -1 0 0 -1 0 -1 -1 -4 -1 -3 -27 -15 -4 -4 -2 -2 -2 -3 -1 -4 -5 -14 -15 -12 -14 -3 -2 -18 -25 -2 -53 -23 -2 -2 -2 -15 -7 -9 -1 0 -14 -9 -15 -5 -6 -3 -4
0 0 0 0 0 0 0 0 0 0 0 -1 0 -8 -4 -3 -4 -5 -4 -3 -3 -2 -1 -6 -2 -2 -4 -10 -1 -2 -9 -20 -32 -16 -22 -25 -63 -65 -18 -8 -5 -3 -3 -1 -5 -2 -1 -2 -2 -3 -7 -4 -2 -3
0 0 0 0 -1 0 -1 -3 -1 -1 -5 -3 -3 -1 -3 -4 -17 -2 -3 -4 -1 -1 -2 -8 -1 0 -2 -3 -1 -12 -11 -14 -11 -18 -15 -32 -35 -4 -2 -15 -2 -11 -4 -11 -1 -1 -1 -5 -3 -3 -6 -4 -3 -38
-1 0 -1 -1 -1 -2 -4 -3 -4 -3 -3 0 -3 -3 -3 -4 -4 -4 -2 -6 -6 -4 -2 -11 -2 -8 -11 -4 -7 -3 -4 -2 -3 -3 -5 -11 -11 -10 -4 -1 -7 -2 -3 -3 -3 -2 -5 -5 -5 -3 -2 -12 -15 -9
-2 -1 -16 -6 -2 -6 -3 -3 -3 -1 0 -2 -4 -4 -2 -2 -2 -3 -2 -1 -1 -1 -1 -6 -8 -1 -2 -2 -2 -3 -3 -2 -1 -4 -2 -10 -9 -7 -4 -1 -1 -12 -5 -5 -2 -6 -2 -14 -15 -17 -11 -1 -10 -6
-1 -2 -5 -2 -8 -22 -5 -3 -3 -3 -4 -2 -2 -1 -3 -3 -3 -1 -1 -3 -5 -1 -2 -2 -2 -3 -3 -3 -4 -3 -4 -9 -2 -22 -4 -2 -2 -3 -2 -1 -3 -20 -7 -15 -15 -3 -4 -1 -3 -8 -3 -3 -5 -5
-2 -1 -3 -2 -2 -1 -3 -2 -1 -2 -2 -3 -3 -3 -4 -3 -17 -8 -1 -2 -2 -2 -3 -12 -15 -4 -9 -8 -4 -3 -4 -16 -16 -12 -12 -10 -5 -9 -6 -20 -10 -16 -3 -4 -19 -10 -5 -2 -6 -4 -5 -4 -7 -5
-1 -3 -2 -2 -2 -2 -1 -1 -2 -2 -1 -2 -3 -3 -13 -11 -6 -5 -2 -2 -2 -13 -13 -14 -2 -2 -2 -3 -6 -4 -33 -16 -5 -7 -4 -4 -14 -9 -4 -22 -43 -44 -14 -6 -3 -2 -15 -3 -11 -2 -2 -11 -4 -4
-2 -3 -1 -1 -1 -2 -23 -10 -2 -2 -1 -8 -5 -2 -1 -5 -2 -2 -1 -2 -3 -2 -2 -3 -7 -2 -2 -9 -8 -1 -4 -15 -29 -49 -25 -7 -4 -8 -3 -11 -21 -8 -33 -53 -17 -20 -12 -4 0 -4 -2 -2 -2 -2
-2 -1 -2 -3 -3 -2 -2 -3 -2 -2 -1 -1 -1 -2 0 -4 -1 -1 -2 -9 -7 -2 -15 -2 -1 -1 -2 -2 -3 -3 -29 -7 -24 -9 -9 -20 -8 -6 -29 -25 -6 -10 -7 0 -2 -8 -31 -16 -8 -6 -14 -1 -6 -3
-1 -3 -12 -1 0 0 -1 -2 -2 -1 -2 -3 -9 -3 -2 -2 -1 -2 -4 -8 -3 -2 -5 -4 -3 -4 -4 -11 -5 -6 -7 -3 -1 -4 -9 -21 -42 -39 -19 -3 -2 -2 -6 -11 -7 -5 -16 -22 -21 -3 -3 -11 -2 -14
Wind_Speed
17 17 19 18 17 10 5 2 5 6 4 2 3 5 9 13 17 20 19 18 24 29 34 31 29 27 24 21 23 22 22 16 20 22 16 20 21 16 31 15 22 17 24 29 32 37 39 25 17 20 15 14 16 16
16 17 20 20 16 11 6 2 4 5 2 1 2 4 8 12 16 18 18 17 21 27 31 32 33 31 28 21 26 22 16 22 18 17 21 20 21 17 25 33 23 30 26 19 20 19 19 18 16 15 15 16 17 17
17 19 18 17 16 11 6 2 3 4 2 2 2 4 7 11 14 18 22 23 24 29 33 32 25 2 21 6 22 21 16 19 19 18 22 17 23 27 15 33 32 31 23 24 17 13 14 15 15 15 16 17 18 20
15 16 16 15 13 12 6 3 2 3 2 2 2 4 6 11 14 19 21 21 21 24 24 16 18 18 17 12 9 22 24 22 24 25 26 27 27 22 29 26 15 19 18 12 13 12 10 13 15 15 15 17 19 20
13 13 15 15 13 13 9 2 2 2 1 2 2 4 6 11 14 20 25 22 18 18 23 27 29 29 14 17 11 20 22 23 24 25 24 26 28 28 26 9 18 9 7 12 6 10 10 10 13 15 17 19 21 22
12 13 12 12 13 12 12 2 1 2 2 3 3 4 6 11 16 18 15 14 18 12 20 21 21 17 14 15 18 17 26 25 25 25 26 22 22 23 25 19 20 16 12 10 9 11 10 11 14 17 18 19 21 21
12 11 11 12 14 14 12 8 2 3 2 2 4 5 7 11 16 14 20 17 18 16 17 22 21 13 13 14 19 24 17 27 27 27 27 27 24 26 30 27 12 13 12 11 10 11 13 15 16 17 18 21 20 21
12 11 11 12 13 14 12 9 2 2 3 3 3 6 9 13 20 20 16 13 15 14 19 18 23 18 12 15 18 17 22 15 17 25 20 24 16 22 22 11 9 11 12 12 13 16 15 14 16 16 17 19 20 21
12 12 13 12 13 12 11 7 3 3 5 4 4 7 13 15 14 14 17 13 13 18 22 23 24 18 12 23 15 16 18 17 14 20 16 16 20 18 15 15 13 13 11 10 14 16 16 16 18 18 19 19 21 21
12 13 12 13 13 12 10 3 1 6 7 5 7 11 13 15 13 14 13 14 16 15 17 25 25 26 18 14 15 17 15 20 15 13 13 19 20 12 15 16 16 14 11 12 10 10 10 13 14 18 21 20 19 18
12 13 13 13 13 13 9 1 7 9 5 8 9 10 15 12 12 11 9 13 17 21 19 24 30 27 20 18 12 18 17 16 18 15 17 16 22 10 12 12 11 10 10 10 12 13 12 12 16 15 15 16 18 20
13 13 13 12 12 12 1 8 11 3 4 6 8 9 11 12 10 9 9 14 22 24 16 20 21 26 19 19 17 15 18 18 21 11 18 23 11 8 8 9 9 10 10 10 12 11 12 14 16 16 16 16 18 19
13 12 13 12 12 9 7 10 7 4 0 7 12 11 10 9 11 9 9 18 24 22 16 16 18 24 18 22 22 18 22 22 14 18 19 15 9 11 10 10 10 11 12 13 12 13 13 14 16 18 16 16 14 18
12 12 12 12 11 7 9 10 6 5 10 9 9 13 10 11 10 9 21 24 24 22 16 19 17 22 22 22 21 21 21 18 19 19 16 8 10 10 10 10 11 12 13 13 13 13 16 17 18 18 19 19 20 20
13 13 13 12 11 8 10 9 8 11 11 10 10 14 13 13 20 22 23 27 18 19 18 22 23 21 19 20 22 19 18 22 19 19 15 10 11 10 10 11 12 13 13 14 15 17 18 19 18 18 17 16 17 19
13 13 15 11 10 10 12 9 10 14 15 15 15 16 19 16 21 28 24 28 21 20 21 18 23 24 20 21 19 21 20 20 18 12 12 11 10 10 10 12 13 14 14 16 18 19 18 17 19 14 12 14 16 18
14 18 12 12 11 10 12 11 11 12 14 16 19 26 32 29 33 30 29 26 25 25 25 22 23 24 18 28 25 20 21 20 9 11 12 11 9 10 10 10 11 11 12 15 19 20 20 18 16 12 10 13 15 16
9 5 6 10 12 13 14 14 14 14 21 29 32 34 36 31 27 29 27 27 25 26 26 25 20 21 24 22 21 19 15 16 15 12 12 9 8 9 9 10 10 10 13 17 22 23 21 14 12 11 9 12 14 14
6 8 13 16 15 18 20 25 26 29 32 32 32 31 31 31 29 27 24 32 33 29 24 17 21 24 23 18 14 12 13 13 12 10 10 8 8 8 8 10 11 10 13 19 24 22 21 16 17 7 9 10 13 12
20 29 42 45 41 34 30 28 32 29 24 28 30 32 31 30 30 32 33 33 33 30 22 24 18 15 13 13 16 13 12 11 8 9 10 9 7 7 7 6 12 8 8 6 7 11 7 16 22 13 7 8 12 11
45 44 47 44 33 27 26 27 28 27 25 26 30 30 30 32 34 34 36 37 33 21 22 13 12 12 13 13 12 11 12 14 15 17 17 16 7 7 7 7 6 5 8 26 16 12 9 10 13 9 7 6 7 6
47 45 39 30 26 24 23 25 24 24 24 25 31 31 33 37 35 32 23 25 25 5 7 8 8 7 8 9 10 11 13 15 16 18 18 19 18 16 7 6 8 9 13 14 14 15 13 11 9 8 7 6 8 6
35 30 26 26 24 23 21 23 26 30 32 34 30 27 24 25 19 10 14 7 8 8 7 7 10 10 9 11 12 13 15 17 20 19 18 21 23 16 15 15 15 14 17 18 15 14 12 9 7 9 8 5 7 4
22 25 22 24 26 24 25 29 29 31 31 29 23 18 13 14 19 13 9 10 13 16 13 20 19 14 10 10 8 13 17 19 21 22 21 22 21 20 18 16 16 15 17 14 13 12 8 6 8 7 9 10 11 8
22 22 21 22 22 22 20 19 19 17 16 14 12 16 20 17 15 14 13 12 17 10 15 19 14 12 13 15 15 15 17 20 19 18 15 15 16 15 15 12 15 13 14 11 12 9 6 6 6 9 12 10 6 15
19 20 23 19 16 16 15 17 14 16 14 14 18 19 20 16 13 14 9 8 15 18 15 13 13 15 15 17 18 18 15 16 17 17 17 13 15 15 16 15 14 15 14 12 11 9 8 5 5 14 9 16 24 24
19 19 15 16 15 18 19 16 13 12 10 13 16 16 14 11 10 9 10 13 14 14 14 15 16 16 18 20 18 17 16 14 15 17 16 12 11 13 11 13 12 11 7 9 8 6 8 5 5 3 13 11 23 27
17 19 19 20 17 13 14 14 10 8 10 15 15 13 12 12 11 12 13 14 15 14 16 14 14 19 19 20 20 19 18 17 13 14 15 11 11 12 18 16 12 14 9 7 4 11 9 18 20 4 2 22 3 11
16 14 16 15 16 14 10 8 10 9 9 10 8 9 11 14 14 15 15 16 13 10 16 17 17 13 18 19 20 21 12 13 18 15 10 20 13 22 21 19 22 25 5 5 5 4 8 5 11 23 24 18 13 8
12 13 11 10 10 14 8 8 4 5 6 11 18 17 16 16 16 15 15 15 16 14 6 13 12 12 12 16 16 16 19 16 12 18 21 15 16 13 21 24 26 25 24 19 21 11 5 7 5 6 7 9 12 15
15 15 11 5 2 5 4 6 9 9 8 10 11 14 14 13 14 18 16 13 13 14 14 16 14 18 20 20 18 19 20 20 20 21 24 18 16 24 25 25 30 31 25 28 27 27 27 18 14 10 8 9 12 18
12 9 4 12 9 6 7 4 2 4 5 4 8 22 21 18 15 13 12 19 19 19 18 19 21 20 21 21 19 20 13 16 8 11 12 19 23 25 26 26 25 26 25 16 22 29 29 32 27 27 29 30 27 25
18 18 13 15 17 18 17 18 15 12 13 12 12 14 23 21 21 22 20 20 21 22 21 21 23 22 24 22 21 23 24 22 23 10 7 5 4 5 8 19 26 27 25 23 24 25 22 18 12 13 14 13 15 13
Wind_Direction
322 322 317 316 320 335 342 140 149 148 141 88 22 22 357 341 326 309 301 299 277 269 258 264 264 266 262 277 272 276 268 278 280 261 281 261 270 283 261 295 267 270 270 264 262 261 259 295 301 280 289 301 307 309
318 321 312 311 322 337 349 98 135 139 129 51 19 22 0 345 326 318 309 305 292 275 260 270 256 241 230 216 267 269 283 270 294 288 272 286 281 294 279 264 285 270 276 275 278 272 281 303 302 303 305 300 306 310
311 313 317 320 326 337 355 99 121 128 122 85 44 22 357 342 333 314 300 296 292 276 266 259 274 265 279 316 233 271 279 290 292 298 246 317 298 277 260 249 276 265 279 269 274 287 291 296 305 312 309 308 309 310
315 320 327 327 334 331 347 49 108 120 100 79 42 25 7 340 331 312 299 302 299 279 273 294 293 284 289 302 333 260 262 274 277 284 288 285 280 296 271 297 259 296 270 278 282 287 302 308 307 311 313 313 313 313
316 322 325 325 325 317 325 12 108 118 75 78 57 32 14 341 330 307 290 293 301 289 272 269 275 259 285 279 302 269 268 272 278 280 289 290 287 293 297 319 301 53 2 301 306 303 311 319 319 316 314 313 312 311
309 317 327 338 327 317 309 332 149 126 112 97 66 38 19 332 321 322 325 322 302 307 284 274 274 293 280 280 276 289 253 269 274 280 278 291 297 288 280 298 299 345 338 324 321 322 322 316 317 316 317 320 318 320
304 313 321 322 318 309 309 308 149 152 136 101 72 32 5 334 314 319 308 318 319 291 289 276 275 286 281 282 275 271 293 258 255 239 249 242 263 243 259 284 85 308 342 348 352 345 321 303 312 319 319 311 313 320
302 309 312 310 309 309 305 305 314 162 145 113 58 11 352 333 299 299 314 331 312 304 279 278 263 280 282 280 280 289 271 296 286 256 281 259 298 270 268 330 347 336 335 332 331 320 328 333 330 331 329 325 320 320
300 303 305 306 307 312 311 303 289 130 126 105 37 359 329 322 321 319 316 319 315 283 269 260 254 284 280 255 286 294 278 278 295 275 293 297 277 283 294 299 307 309 326 349 331 325 328 328 322 327 323 324 323 326
296 298 302 304 305 309 312 304 181 132 123 104 336 327 326 317 332 327 318 306 295 289 282 258 258 264 267 272 279 273 281 269 287 296 305 274 267 307 299 296 302 311 325 334 359 7 9 356 346 333 325 327 331 333
294 294 300 300 300 300 304 201 137 128 115 306 315 320 310 324 325 337 333 302 285 277 278 261 246 253 262 265 283 271 271 282 280 286 275 288 271 307 312 322 330 336 339 349 347 347 360 358 344 347 345 337 328 323
288 289 294 299 295 297 229 147 148 200 288 302 320 324 316 320 333 333 321 300 275 264 284 257 248 247 265 261 268 271 270 266 256 299 285 269 304 332 345 350 355 354 355 358 354 356 357 350 341 339 339 338 329 324
285 288 291 292 288 285 162 161 182 272 29 312 309 313 318 318 308 314 299 285 264 266 279 263 243 245 262 244 251 256 252 260 288 287 289 307 329 326 334 341 344 346 343 342 346 345 344 343 332 328 334 332 332 327
284 285 285 282 279 257 175 174 214 239 287 299 302 293 296 303 305 290 281 270 266 263 275 253 241 242 247 242 255 257 264 277 279 286 301 336 342 333 336 343 336 335 341 342 345 341 333 328 326 323 322 322 322 324
279 278 276 272 265 251 186 194 191 271 286 292 297 292 284 282 284 283 270 259 268 273 271 242 237 242 247 252 253 265 273 270 287 290 316 348 345 344 340 338 339 339 345 342 334 329 321 317 318 316 322 330 329 331
274 277 268 255 244 242 192 201 237 269 283 290 288 289 290 285 272 259 260 249 260 264 250 242 234 237 248 253 257 261 271 282 298 315 337 344 351 350 350 348 349 346 343 338 331 325 325 324 315 323 335 340 337 332
273 275 255 238 230 199 183 234 262 264 280 283 281 268 258 263 251 247 244 248 242 237 232 233 238 236 255 242 249 267 273 289 328 335 341 347 357 358 5 5 2 0 351 339 329 327 317 321 330 336 342 337 333 331
279 268 202 196 193 190 236 250 256 270 268 255 249 243 240 247 243 233 239 229 228 227 228 228 246 242 242 255 263 275 290 303 316 328 342 358 13 16 19 16 16 19 357 336 315 312 306 327 330 334 349 332 328 337
168 120 141 144 192 215 227 226 227 223 218 215 214 217 221 220 225 231 233 217 218 220 230 244 244 237 246 266 290 304 307 309 322 349 358 12 18 29 29 354 359 18 359 328 304 313 304 317 311 358 349 347 330 340
135 140 160 169 176 183 184 190 197 200 203 206 208 205 215 219 212 207 206 206 207 213 228 232 249 263 279 283 288 305 311 331 1 356 8 12 54 68 85 59 168 43 40 69 52 11 64 313 271 322 9 359 339 341
157 159 159 166 177 187 186 186 187 198 212 207 197 196 192 188 188 191 187 184 193 227 223 251 261 278 286 288 305 313 310 301 301 306 301 306 50 60 97 96 93 133 320 286 339 355 1 354 335 4 25 36 31 18
137 142 156 173 176 184 190 198 200 200 192 187 182 179 170 165 173 179 190 192 184 256 269 274 288 312 333 333 313 311 309 293 298 300 297 303 312 329 41 38 20 6 349 345 339 331 331 342 360 13 16 29 6 36
137 153 164 169 175 180 180 179 175 166 162 163 170 177 179 175 183 195 209 211 227 245 277 304 283 300 312 307 311 315 310 298 284 303 309 289 279 332 339 347 345 344 333 329 336 335 330 339 10 354 11 40 7 42
165 160 166 171 169 167 168 164 163 160 158 168 169 155 164 181 182 184 186 194 198 195 209 173 167 129 7 21 78 339 317 309 294 293 303 308 314 327 335 346 348 345 336 334 335 337 348 357 348 7 352 341 328 351
154 160 161 160 163 160 164 154 149 135 139 149 149 162 169 179 179 183 194 203 189 236 64 154 270 13 357 350 8 347 331 309 314 319 339 344 337 345 355 8 359 5 358 6 339 356 29 3 12 336 317 330 1 318
151 155 156 160 161 161 153 146 152 158 162 169 170 173 173 183 198 202 237 274 69 99 61 83 3 358 357 349 343 343 353 335 327 326 323 355 347 359 354 1 8 9 11 22 25 16 3 34 14 308 326 316 286 291
144 150 162 166 162 159 156 158 161 165 162 170 180 187 198 221 243 277 5 38 47 64 29 13 5 4 344 319 334 334 328 338 334 326 347 24 29 11 27 11 30 57 289 199 74 48 126 357 141 61 192 324 300 284
149 149 146 152 155 161 159 163 170 181 187 189 197 213 231 258 297 7 29 35 16 22 4 27 39 290 340 321 292 308 313 318 347 350 346 12 24 10 312 336 23 9 31 68 112 1 359 319 314 353 312 309 329 314
153 160 160 162 163 167 173 177 183 199 222 211 352 351 7 21 13 6 14 15 56 113 355 343 356 204 356 294 290 287 22 353 324 325 38 322 354 282 300 300 312 302 53 85 52 55 15 8 338 311 311 321 325 316
158 163 160 165 170 168 190 202 287 285 305 356 48 44 15 355 336 308 298 268 297 345 338 183 190 211 215 304 282 261 312 257 17 318 306 349 344 358 332 317 314 262 327 336 325 348 19 2 349 340 329 324 322 321
164 163 167 180 200 207 283 298 330 341 334 348 355 6 0 350 348 1 349 333 329 332 355 5 10 353 3 7 24 5 356 343 340 323 308 350 353 333 327 321 303 303 323 307 316 320 316 334 337 334 324 320 322 320
184 194 317 24 5 210 194 204 255 241 232 218 184 108 130 140 9 344 329 2 355 359 342 351 5 25 17 0 15 3 34 24 67 36 8 345 335 333 326 322 319 319 322 325 324 314 308 305 318 319 315 313 317 320
160 161 176 169 165 165 167 164 165 166 162 167 166 153 71 28 25 23 3 357 354 2 348 333 343 340 348 316 301 346 331 3 355 42 56 74 67 50 13 336 326 319 319 318 317 319 321 319 296 290 280 299 307 284